Starlink 5012

operational
NORAD ID: 53918 Int'l Des: 2022-119 Owner: SPXS Country: US Constellation: starlink
LEOCIRCULAR

Über Starlink 5012

Beschreibung wird geladen...

Live-Position

3D-Globus wird geladen...

Nächste Überflüge

Höhenverlauf

Altitude vs Time

uPlot chart will show altitude changes over time

Zweizeiliger Elementsatz

1 53918U 22119AJ 25354.18473044 -.00000225 00000-0 39266-5 0 9992
2 53918 53.2191 310.9405 0001413 92.1332 267.9822 15.08834958179824
Epoch: 20. Dez. 2025 • Age: 21 hours

Aktueller Status

Höhe 540.5 km
Geschwindigkeit 7.59 km/s
Subsatellitenpunkt 1.67°N, 158.2°W
Startdatum 24. Sept. 2022
Alter 3.2 years
Typ internet

Technische Details

Klassifizierung Payload
Masse 305.00 kg
Trockenmasse 290.00 kg
Gesamtmasse 305.00 kg
Länge 0.20 m
Durchmesser 2.80 m
Spannweite 9.00 m
Form Box + pan
Hersteller SPXS
Bus-Typ Starlink
Phasenstatus In Orbit
Besitzer/Staat SPXS/US

Große Konstellationen

Loading constellations...